{"data":{"norad_id":68334,"intl_designator":"2026-059P","name":"STARLINK-37191","alt_names":[],"object_type":"PAYLOAD","status":"ACTIVE","operator":null,"country":"US","launch_date":"2026-03-22","launch_site_code":"AFETR","launch_vehicle":null,"mission":null,"orbit_class":"UNKNOWN","rcs_meters":null,"size_class":null,"mass_kg":null,"dimensions":null,"purposes":["comms"],"wikipedia_slug":null,"has_3d_model":false,"image_url":null,"decayed_at":null,"tle_current":{"epoch":"2026-05-24T20:14:26.510496Z","epoch_age_seconds":82481,"freshness":"FRESH","line1":"1 68334U 26059P   26144.84336239  .00017629  00000+0  60561-3 0  9996","line2":"2 68334  53.1606 354.6478 0001068 117.5798 242.5312 15.30215855  9831","mean_motion":15.30215855,"eccentricity":0.0001068,"inclination_deg":53.1606,"raan_deg":354.6478,"arg_perigee_deg":117.5798,"mean_anomaly_deg":242.5312,"bstar":0.00060561,"rev_number":983,"period_min":94.104370654296,"perigee_km":474.43579671084,"apogee_km":475.89966260109,"semimajor_km":6853.304729656,"source":"CELESTRAK","updated_at":"2026-05-25T13:38:21.924277Z"}}}